Homer, AK

2:09 AM AKST on January 19, 2017 (GMT -0900)
Homer

Weather History for PAHO - March, 2014

Change the Weather History Date:

Thursday, March 20, 2014

  Actual Average Record
Temperature  
Mean Temperature 31 °F -  
Max Temperature 42 °F 38 °F 49 °F (1941)
Min Temperature 21 °F 24 °F -3 °F (1959)
Degree Days  
Heating Degree Days 34    
Moisture  
Dew Point 17 °F    
Average Humidity 53    
Maximum Humidity 71    
Minimum Humidity 39    
Precipitation  
Precipitation 0.00 in - - ()
Sea Level Pressure  
Sea Level Pressure 30.22 in    
Wind  
Wind Speed 5 mph (NE)    
Max Wind Speed 13 mph    
Max Gust Speed -    
Visibility 10 miles    
Events      
Averages and records for this station are not official NWS values.
T = Trace of Precipitation, MM = Missing Value Source: NWS Daily Summary

Daily Weather History Graph

Daily Weather History Graph

Search for Another Location

Airport or City:

Trip Planner

Search our weather history database for the weather conditions in past years. The results will help you decide how hot, cold, wet, or windy it might be!

Date:

Astronomy

Mar. 20, 2014 Rise Set
Actual Time 8:06 AM AKDT 8:21 PM AKDT
Civil Twilight 7:25 AM AKDT 9:02 PM AKDT
Nautical Twilight 6:36 AM AKDT 9:51 PM AKDT
Astronomical Twilight 5:42 AM AKDT 10:45 PM AKDT
Moon 12:43 AM AKDT (3/20) 9:21 AM AKDT (3/20)
Length of Visible Light 13h 36m
Length of Day
12h 14m
Waning Gibbous, 83% of the Moon is Illuminated
Mar 20
Waning Gibbous
Mar 23
Last Quarter
Mar 30
New
Apr 7
First Quarter
Apr 14
Full

Hourly Weather History & Observations

Time (AKDT) Temp. Windchill Dew Point Humidity Pressure Visibility Wind Dir Wind Speed Gust Speed Precip Events Conditions
12:53 AM 28.0 °F 21.7 °F 12.9 °F 53% 30.22 in 10.0 mi ENE 5.8 mph - N/A   Clear
1:53 AM 28.0 °F - 14.0 °F 56% 30.22 in 10.0 mi Calm Calm - N/A   Clear
2:53 AM 28.0 °F 21.7 °F 14.0 °F 56% 30.22 in 10.0 mi NE 5.8 mph - N/A   Clear
3:53 AM 27.0 °F 20.5 °F 14.0 °F 58% 30.22 in 10.0 mi NE 5.8 mph - N/A   Clear
4:53 AM 24.1 °F 19.7 °F 14.0 °F 65% 30.22 in 10.0 mi North 3.5 mph - N/A   Clear
5:53 AM 21.9 °F - 12.0 °F 66% 30.22 in 10.0 mi Calm Calm - N/A   Clear
6:53 AM 24.1 °F - 12.9 °F 62% 30.22 in 10.0 mi Calm Calm - N/A   Clear
7:53 AM 21.0 °F 14.6 °F 12.9 °F 71% 30.22 in 10.0 mi NE 4.6 mph - N/A   Clear
8:53 AM 23.0 °F 17.0 °F 12.9 °F 65% 30.23 in 10.0 mi NE 4.6 mph - N/A   Clear
9:53 AM 28.9 °F 23.9 °F 15.1 °F 56% 30.23 in 10.0 mi NE 4.6 mph - N/A   Clear
10:53 AM 30.9 °F 22.2 °F 19.0 °F 61% 30.23 in 10.0 mi ENE 10.4 mph - N/A   Clear
11:53 AM 34.0 °F 27.2 °F 19.0 °F 54% 30.24 in 10.0 mi ENE 8.1 mph - N/A   Clear
12:53 PM 37.9 °F - 19.0 °F 47% 30.24 in 10.0 mi Calm Calm - N/A   Clear
1:53 PM 39.0 °F 34.0 °F 21.0 °F 49% 30.23 in 10.0 mi East 6.9 mph - N/A   Clear
2:53 PM 39.9 °F 36.7 °F 19.9 °F 45% 30.23 in 10.0 mi East 4.6 mph - N/A   Clear
3:53 PM 41.0 °F 35.2 °F 21.0 °F 45% 30.22 in 10.0 mi East 9.2 mph - N/A   Clear
4:53 PM 41.0 °F 34.3 °F 23.0 °F 49% 30.21 in 10.0 mi East 11.5 mph - N/A   Clear
5:53 PM 41.0 °F 33.9 °F 21.0 °F 45% 30.21 in 10.0 mi ENE 12.7 mph - N/A   Clear
6:53 PM 39.9 °F 32.9 °F 21.9 °F 49% 30.20 in 10.0 mi ENE 11.5 mph - N/A   Clear
7:53 PM 39.0 °F 34.0 °F 16.0 °F 39% 30.21 in 10.0 mi NE 6.9 mph - N/A   Clear
8:53 PM 37.0 °F 31.6 °F 16.0 °F 42% 30.22 in 10.0 mi NNE 6.9 mph - N/A   Clear
9:53 PM 35.1 °F 30.1 °F 16.0 °F 46% 30.22 in 10.0 mi NE 5.8 mph - N/A   Clear
10:53 PM 34.0 °F 29.8 °F 15.1 °F 46% 30.22 in 10.0 mi NNE 4.6 mph - N/A   Clear
11:53 PM 34.0 °F 31.0 °F 14.0 °F 44% 30.23 in 10.0 mi North 3.5 mph - N/A   Clear